[[{"header":{"parameterUnit":"m.s-1","parameterCategory":1,"la1":30.2991,"la2":30.254,"lo1":-89.0895,"lo2":-89.0444,"dy":0.0017,"dx":0.0017,"nx":28,"ny":28,"refTime":"2024-12-10T09:00:00:Z","depth":0,"parameterNumber":2,"parameterNumberName":"U-component_of_WINDS"},"data":[0,0,0,0,0,0,0,0,0,0,0,0,0,0,0,0,0,0,0,0,0,0,0,0,0,0,0,0,0,0,0,0,0,0,0,0,0,0,0,0,0,0,0,0,0,0,0,0,0,0,0,0,0,0,0,0,0,0,2.9851,2.9852,0,2.9916,2.9917,2.9917,2.9899,2.9898,2.9897,2.9895,2.9965,2.9968,2.9971,0,0,0,0,0,0,0,0,0,0,0,0,0,2.9721,2.9723,2.9851,2.9852,2.9853,2.9916,2.9917,2.9918,2.9899,2.9898,2.9896,2.9895,2.9964,2.9968,2.9972,0,0,0,0,0,0,0,0,0,0,0,0,0,2.9781,2.9724,2.9851,2.9851,2.9852,2.9916,2.9917,2.9918,2.99,2.9898,2.9896,2.9894,2.9963,2.9968,2.9972,3.0041,0,0,2.9986,2.9988,0,0,0,0,0,0,0,0,2.9777,2.9785,2.9851,2.9852,2.9852,2.9897,2.9896,2.9959,2.99,2.9882,2.9895,2.9893,2.9945,2.9951,2.9967,3.0044,3.0047,2.9987,2.999,2.9992,2.9993,0,0,0,0,0,0,0,2.9773,2.9783,2.9877,2.9852,2.9853,2.9851,2.9857,2.9908,2.9924,2.9883,2.9882,2.989,2.9945,2.9963,2.9969,3.0048,2.9987,2.9991,2.9994,2.9995,3.0191,3.0193,0,0,0,0,0,0,2.9767,2.9779,2.9875,2.9879,2.9809,2.9855,2.9862,2.9885,2.9923,2.9927,2.9891,2.9889,2.9956,2.9963,2.9971,3.0058,2.9992,2.9996,2.9999,3.0188,3.0191,3.0194,0,0,0,0,0,0,2.9765,2.9776,2.9872,2.9829,2.9841,2.9859,2.9885,2.9887,2.9905,2.9929,2.9932,2.9906,2.9955,2.9965,3.0025,3.006,2.9998,3.0002,3.0186,3.0189,3.0193,3.0229,0,0,0,0,0,0,2.9761,2.9775,2.9799,2.9829,2.9843,2.9922,2.9887,2.989,2.9913,2.991,2.9944,2.9948,2.9954,3.0018,3.0029,3.0065,3.0006,3.0183,3.0187,3.0192,3.0225,3.0233,3.0241,0,0,0,0,0,2.9756,2.9806,2.98,2.9812,2.9873,2.9924,2.9932,2.9937,2.9915,2.9942,2.9958,2.9947,3.0054,3.0024,3.0037,3.0075,3.018,3.0186,3.0191,3.0221,3.0232,3.0241,0,0,0,0,0,0,2.978,2.981,2.9804,2.9864,2.9892,2.9921,2.9953,2.9947,2.9982,2.9978,2.9984,2.9992,3.0054,3.007,3.0036,3.0146,3.0115,3.0123,3.0133,3.0143,3.0151,3.0147,3.001,0,0,0,0,0,2.9792,2.9829,2.9854,2.9905,2.992,2.9935,2.9957,2.9958,2.9987,2.9999,3.002,3.005,3.0091,3.0118,3.0156,3.0227,3.0237,3.026,3.0268,3.0275,3.0282,3.0326,3.0338,3.0212,3.0212,3.0212,0,0,2.9817,2.9839,2.9861,2.9911,2.9932,2.9974,2.9944,2.9987,3.0019,3.0006,3.0065,3.0082,3.0116,3.0183,3.0214,3.0199,3.032,3.0281,3.0286,3.029,3.0333,3.0345,3.0356,3.0215,3.0215,3.0214,0,0,2.9885,2.9903,2.995,2.9973,3.0006,3.0017,3.0029,3.006,3.007,3.0129,3.0122,3.0161,3.023,3.0257,3.0279,3.0364,3.0357,3.0377,3.0419,3.0462,3.0472,3.0481,3.0515,3.0527,3.0384,3.0384,3.0384,0,2.9913,2.9972,2.9976,3.0021,3.0046,3.0036,3.0086,3.0109,3.0153,3.0172,3.0154,3.0245,3.0267,3.0343,3.0364,3.0381,3.0398,3.0373,3.047,3.0479,3.0487,3.052,3.0533,3.0386,3.0386,3.0386,3.0385,0,3.0007,3.0049,3.0084,3.0128,3.0156,3.0203,3.0217,3.0246,3.0246,3.026,3.0324,3.0351,3.0397,3.0415,3.0415,3.0493,3.0483,3.0468,3.0436,3.0502,3.0533,3.0545,3.039,3.0389,3.0388,3.0388,0,0,3.0089,3.0137,3.015,3.0172,3.021,3.0244,3.0294,3.0339,3.0366,3.0398,3.0443,3.0505,3.0492,3.0518,3.0522,3.056,3.0631,3.054,3.0541,3.0559,3.0724,3.0737,3.0751,3.0626,3.0629,3.0631,3.0722,0,3.0163,3.0248,3.0255,3.0333,3.0375,3.0369,3.0413,3.0444,3.0459,3.0499,3.0517,3.0562,3.054,3.0557,3.0593,3.0614,3.0665,3.0607,3.0672,3.0674,3.0665,3.0767,3.078,3.0865,3.0734,3.0736,3.0738,0,3.0258,3.0295,3.0378,3.0415,3.0433,3.0472,3.0517,3.0554,3.0591,3.06,3.0632,3.0632,3.0688,3.0654,3.0734,3.0695,3.0723,3.0738,3.0741,3.0749,3.0711,3.078,3.0891,3.0905,3.0756,3.0755,3.0753,0,3.0314,3.0384,3.0444,3.0462,3.0506,3.0535,3.0555,3.059,3.0619,3.0659,3.0679,3.0725,3.0751,3.0789,3.0804,3.0778,3.0885,3.0851,3.0898,3.0898,3.0921,3.092,3.1041,3.0935,3.0935,3.0934,3.0934,0,3.0397,3.0448,3.047,3.0507,3.0567,3.0576,3.0636,3.0655,3.0687,3.0731,3.0729,3.077,3.0786,3.0832,3.0844,3.0912,3.0923,3.0935,3.0938,3.0936,3.0935,3.0955,3.0951,3.0938,3.0937,3.0936,3.0936,0,3.0469,3.0484,3.055,3.0588,3.0599,3.0641,3.0675,3.0714,3.073,3.0786,3.0799,3.0826,3.088,3.0899,3.0964,3.0973,3.1052,3.1049,3.104,3.1041,3.1088,3.1084,3.1228,3.125,3.1126,3.1127,3.1128,0,3.0521,3.0561,3.0604,3.0632,3.0654,3.07,3.073,3.0743,3.0775,3.0823,3.0856,3.091,3.0953,3.1041,3.1068,3.112,3.112,3.1167,3.1128,3.1127,3.1126,3.1124,3.1131,3.1175,3.1176,3.1177,3.1178,0,3.0613,3.0621,3.0662,3.071,3.0746,3.0783,3.082,3.0844,3.0863,3.09,3.0956,3.099,3.1058,3.1114,3.1168,3.1192,3.1191,3.119,3.1205,3.1204,3.1199,3.1207,3.1063,3.1187,3.1186,3.1185,3.1185,3.1185,3.0679,3.0717,3.0754,3.0803,3.0832,3.0868,3.0907,3.0929,3.0975,3.1031,3.1037,3.1098,3.114,3.1212,3.124,3.1291,3.1278,3.1297,3.1303,3.1308,3.1314,3.1189,3.13,3.13,3.13,3.13,3.1299,0,3.0775,3.08,3.0844,3.0897,3.0937,3.093,3.0972,3.1007,3.106,3.1099,3.1143,3.121,3.1265,3.1298,3.1354,3.1389,3.139,3.1404,3.1403,3.141,3.132,3.1303,3.1402,3.1402,3.1402,3.1402,3.1402,3.1402,3.0829,3.0894,3.0906,3.0987,3.1012,3.1071,3.1097,3.1132,3.1163,3.1237,3.1283,3.1304,3.1342,3.1403,3.1455,3.1464,3.1486,3.1502,3.151,3.1426,3.1415,3.1405,3.139,3.1506,3.1506,3.1596,3.1597,3.1598]},{"header":{"parameterUnit":"m.s-1","parameterCategory":1,"la1":30.2991,"la2":30.254,"lo1":-89.0895,"lo2":-89.0444,"dy":0.0017,"dx":0.0017,"nx":28,"ny":28,"refTime":"2024-12-10T09:00:00:Z","depth":0,"parameterNumber":3,"parameterNumberName":"V-component_of_WINDS"},"data":[0,0,0,0,0,0,0,0,0,0,0,0,0,0,0,0,0,0,0,0,0,0,0,0,0,0,0,0,0,0,0,0,0,0,0,0,0,0,0,0,0,0,0,0,0,0,0,0,0,0,0,0,0,0,0,0,0,0,-6.8509,-6.8509,0,-6.8532,-6.8532,-6.8533,-6.8455,-6.8453,-6.8451,-6.8448,-6.8471,-6.8474,-6.8477,0,0,0,0,0,0,0,0,0,0,0,0,0,-6.8395,-6.8398,-6.8509,-6.851,-6.851,-6.8532,-6.8532,-6.8533,-6.8456,-6.8453,-6.845,-6.8447,-6.847,-6.8474,-6.8477,0,0,0,0,0,0,0,0,0,0,0,0,0,-6.8434,-6.8399,-6.8509,-6.8474,-6.8471,-6.8532,-6.8533,-6.8533,-6.8456,-6.8453,-6.8449,-6.8446,-6.8469,-6.8473,-6.8477,-6.8573,0,0,-6.849,-6.8492,0,0,0,0,0,0,0,0,-6.8432,-6.8438,-6.8479,-6.8477,-6.8473,-6.8487,-6.85,-6.8546,-6.8457,-6.8462,-6.8448,-6.8444,-6.8479,-6.8482,-6.8494,-6.8574,-6.8575,-6.849,-6.8493,-6.8495,-6.8496,0,0,0,0,0,0,0,-6.8429,-6.8437,-6.8518,-6.848,-6.8476,-6.8456,-6.8458,-6.8509,-6.849,-6.8461,-6.8456,-6.846,-6.8477,-6.8491,-6.8494,-6.8575,-6.849,-6.8494,-6.8497,-6.8498,-6.873,-6.8734,0,0,0,0,0,0,-6.8432,-6.8435,-6.8517,-6.8519,-6.8444,-6.8461,-6.8463,-6.8486,-6.8489,-6.8486,-6.8463,-6.8456,-6.8485,-6.849,-6.8495,-6.8604,-6.8495,-6.8499,-6.8501,-6.8727,-6.8731,-6.8735,0,0,0,0,0,0,-6.8429,-6.844,-6.8517,-6.8476,-6.8484,-6.8467,-6.8494,-6.8489,-6.8502,-6.849,-6.8486,-6.848,-6.8483,-6.8489,-6.8553,-6.8604,-6.8501,-6.8504,-6.8722,-6.8728,-6.8733,-6.8825,0,0,0,0,0,0,-6.8427,-6.8439,-6.8477,-6.8477,-6.8486,-6.8576,-6.8497,-6.8492,-6.851,-6.8501,-6.8505,-6.8503,-6.848,-6.8547,-6.8557,-6.8608,-6.8508,-6.8718,-6.8725,-6.8731,-6.8817,-6.8833,-6.8846,0,0,0,0,0,-6.8423,-6.8502,-6.8479,-6.8489,-6.8533,-6.8579,-6.8584,-6.8557,-6.8514,-6.855,-6.8542,-6.8503,-6.8597,-6.8555,-6.8565,-6.8617,-6.8714,-6.8723,-6.8731,-6.8811,-6.883,-6.8846,0,0,0,0,0,0,-6.8509,-6.8502,-6.8476,-6.8558,-6.857,-6.8566,-6.8611,-6.8579,-6.8603,-6.8594,-6.8559,-6.856,-6.863,-6.863,-6.8583,-6.8708,-6.8648,-6.8659,-6.8705,-6.8723,-6.8737,-6.8735,-6.8511,0,0,0,0,0,-6.8538,-6.8577,-6.8568,-6.8641,-6.8648,-6.8629,-6.8648,-6.8626,-6.8636,-6.8641,-6.8638,-6.8649,-6.868,-6.8702,-6.8731,-6.8817,-6.8815,-6.8858,-6.8873,-6.8884,-6.8893,-6.8935,-6.8953,-6.8762,-6.8762,-6.8762,0,0,-6.8597,-6.8598,-6.8625,-6.8659,-6.8665,-6.8704,-6.8634,-6.8679,-6.8708,-6.8648,-6.8707,-6.8705,-6.8715,-6.879,-6.8823,-6.8792,-6.8946,-6.8895,-6.8905,-6.8907,-6.8946,-6.8964,-6.898,-6.8768,-6.8767,-6.8766,0,0,-6.8725,-6.8731,-6.8791,-6.8798,-6.8808,-6.8794,-6.8808,-6.8809,-6.8805,-6.8864,-6.8819,-6.8852,-6.8908,-6.8916,-6.8927,-6.9055,-6.9018,-6.9065,-6.914,-6.9181,-6.9196,-6.921,-6.9252,-6.9268,-6.9075,-6.9075,-6.9075,0,-6.8798,-6.8856,-6.8826,-6.8873,-6.8888,-6.8835,-6.8894,-6.8902,-6.8921,-6.8932,-6.8898,-6.8965,-6.8968,-6.9042,-6.9073,-6.9085,-6.9098,-6.9064,-6.9197,-6.921,-6.9221,-6.9261,-6.9278,-6.908,-6.908,-6.9079,-6.9079,0,-6.8943,-6.8984,-6.9031,-6.9049,-6.9069,-6.9122,-6.9098,-6.9122,-6.9098,-6.9087,-6.9146,-6.9148,-6.9174,-6.9191,-6.9169,-6.9261,-6.9241,-6.9203,-6.9141,-6.9246,-6.9282,-6.9298,-6.9088,-6.9086,-6.9085,-6.9083,0,0,-6.9127,-6.9125,-6.9143,-6.9149,-6.9154,-6.9185,-6.9234,-6.926,-6.9279,-6.9294,-6.9333,-6.938,-6.9344,-6.9357,-6.9334,-6.9371,-6.9467,-6.9327,-6.9327,-6.9351,-6.9566,-6.9592,-6.9611,-6.9444,-6.9447,-6.9449,-6.9564,0,-6.925,-6.9334,-6.9307,-6.9392,-6.9427,-6.9376,-6.9418,-6.9425,-6.9416,-6.9444,-6.9433,-6.9466,-6.9418,-6.9424,-6.9459,-6.9449,-6.951,-6.944,-6.9478,-6.9479,-6.9474,-6.963,-6.966,-6.9768,-6.9578,-6.9581,-6.9582,0,-6.9406,-6.9424,-6.9512,-6.9507,-6.9521,-6.956,-6.9579,-6.9607,-6.9613,-6.9603,-6.9617,-6.9586,-6.9632,-6.9572,-6.9634,-6.9588,-6.9601,-6.9599,-6.9602,-6.9602,-6.9535,-6.9632,-6.9802,-6.9817,-6.9605,-6.9604,-6.9602,0,-6.9526,-6.9574,-6.9631,-6.9638,-6.9636,-6.9663,-6.9664,-6.9666,-6.9682,-6.9699,-6.9708,-6.9731,-6.9743,-6.976,-6.9735,-6.9695,-6.98,-6.9739,-6.9791,-6.9792,-6.9814,-6.9812,-6.9985,-6.9828,-6.9828,-6.9827,-6.9827,0,-6.9665,-6.972,-6.9685,-6.972,-6.9779,-6.9746,-6.9805,-6.98,-6.9802,-6.9834,-6.9792,-6.9823,-6.979,-6.9817,-6.9798,-6.985,-6.9857,-6.9849,-6.9843,-6.9851,-6.9852,-6.9858,-6.9849,-6.9832,-6.9831,-6.983,-6.9829,0,-6.981,-6.9789,-6.9847,-6.9839,-6.9838,-6.9882,-6.9874,-6.9906,-6.9892,-6.9933,-6.9941,-6.9921,-6.995,-6.9928,-6.9958,-6.9945,-7.0013,-6.9998,-7.001,-7.0005,-7.0057,-7.0051,-7.0238,-7.0259,-7.0091,-7.0093,-7.0094,0,-6.9899,-6.9939,-6.9935,-6.9952,-6.9955,-6.9985,-6.9999,-6.9968,-6.9986,-6.9994,-7.0024,-7.0049,-7.0068,-7.0118,-7.0105,-7.0127,-7.011,-7.0174,-7.0113,-7.0119,-7.0107,-7.0104,-7.0106,-7.0186,-7.0188,-7.0189,-7.0191,0,-7.0057,-7.0044,-7.0067,-7.0085,-7.0104,-7.0117,-7.0127,-7.0145,-7.0112,-7.0134,-7.0162,-7.0177,-7.0206,-7.0231,-7.0248,-7.0248,-7.0213,-7.021,-7.0223,-7.023,-7.0234,-7.0229,-7.004,-7.0205,-7.0204,-7.0203,-7.0202,-7.0201,-7.0175,-7.0206,-7.0207,-7.0233,-7.0236,-7.0246,-7.0273,-7.0263,-7.0286,-7.0306,-7.0287,-7.0321,-7.0323,-7.0342,-7.0346,-7.0371,-7.0345,-7.0364,-7.0369,-7.0373,-7.0379,-7.0233,-7.0375,-7.0375,-7.0374,-7.0374,-7.0373,0,-7.0328,-7.0325,-7.0349,-7.0362,-7.0382,-7.0348,-7.0356,-7.0375,-7.0405,-7.041,-7.0428,-7.046,-7.0484,-7.0472,-7.0493,-7.0515,-7.05,-7.0521,-7.0518,-7.0517,-7.0403,-7.0388,-7.0533,-7.0533,-7.0533,-7.0533,-7.0533,-7.0533,-7.041,-7.046,-7.0446,-7.0497,-7.0494,-7.0526,-7.0533,-7.0541,-7.0544,-7.0581,-7.06,-7.0592,-7.0589,-7.0608,-7.0628,-7.0624,-7.0632,-7.0659,-7.0649,-7.0542,-7.0526,-7.0511,-7.0497,-7.0662,-7.0662,-7.076,-7.0761,-7.0762]}]]